JST794 YMML-YBSU

Flight info

Callsign JST794
Flight time N/A
Altitude 35000
Route NONIX4/34 NONIX H66 IDNER/N0392F190 W214 GOMOL/N0454F360 Q69 SU
Aircraft A320/M-SDE3FGHIRWY/LB1

Departure

Time N/A
Airport Melbourne Airport (YMML)

Arrival

Time 2026-04-26 05:59
Airport Sunshine Coast Airport (YBSU)
Time Latitude Longitude Altitude Speed Heading
2026-04-26 05:37 -27.75480 153.49958 35155 ft 468 kts 356°
2026-04-26 05:37 -27.68964 153.49885 35155 ft 469 kts 356°
2026-04-26 05:38 -27.62446 153.49826 35153 ft 469 kts 356°
2026-04-26 05:38 -27.55972 153.49765 35147 ft 468 kts 355°
2026-04-26 05:39 -27.49462 153.49690 35038 ft 468 kts 355°
2026-04-26 05:39 -27.46185 153.49655 34187 ft 474 kts 355°
2026-04-26 05:39 -27.42864 153.49623 33326 ft 479 kts 356°
2026-04-26 05:40 -27.39525 153.49593 32524 ft 481 kts 356°
2026-04-26 05:40 -27.36177 153.49565 31738 ft 482 kts 356°
2026-04-26 05:40 -27.32825 153.49537 30925 ft 482 kts 356°
2026-04-26 05:40 -27.29467 153.49505 30081 ft 483 kts 356°
2026-04-26 05:41 -27.26109 153.49474 29200 ft 484 kts 356°
2026-04-26 05:41 -27.22739 153.49442 28297 ft 484 kts 357°
2026-04-26 05:41 -27.19375 153.49410 27358 ft 483 kts 357°
2026-04-26 05:41 -27.16028 153.49377 26670 ft 478 kts 357°
2026-04-26 05:42 -27.12731 153.49346 26021 ft 471 kts 358°
2026-04-26 05:42 -27.09476 153.49321 25360 ft 464 kts 358°
2026-04-26 05:42 -27.06272 153.49293 24710 ft 457 kts 358°
2026-04-26 05:42 -27.03119 153.49264 23956 ft 449 kts 358°
2026-04-26 05:43 -27.01063 153.49244 23373 ft 444 kts 358°
2026-04-26 05:43 -26.96966 153.49206 22173 ft 437 kts 359°
2026-04-26 05:43 -26.94960 153.49189 21686 ft 433 kts 359°
2026-04-26 05:43 -26.91972 153.49161 20774 ft 427 kts 359°
2026-04-26 05:44 -26.89018 153.49135 19894 ft 422 kts 359°
2026-04-26 05:44 -26.86098 153.49107 19042 ft 417 kts 359°
2026-04-26 05:44 -26.83210 153.49080 18223 ft 413 kts 359°
2026-04-26 05:44 -26.80348 153.49057 17436 ft 408 kts 359°
2026-04-26 05:45 -26.77523 153.49034 16650 ft 404 kts 359°
2026-04-26 05:45 -26.74746 153.48709 15862 ft 399 kts 348°
2026-04-26 05:45 -26.72114 153.47785 15050 ft 395 kts 336°
2026-04-26 05:45 -26.69717 153.46330 14208 ft 390 kts 327°
2026-04-26 05:46 -26.67473 153.44739 13942 ft 371 kts 328°
2026-04-26 05:46 -26.65357 153.43241 13802 ft 350 kts 328°
2026-04-26 05:46 -26.63348 153.41818 13588 ft 335 kts 328°
2026-04-26 05:46 -26.61401 153.40440 13123 ft 328 kts 328°
2026-04-26 05:47 -26.59487 153.39090 12662 ft 323 kts 328°
2026-04-26 05:47 -26.57593 153.37756 12107 ft 322 kts 328°
2026-04-26 05:47 -26.55697 153.36422 11410 ft 321 kts 328°
2026-04-26 05:47 -26.53809 153.35096 10657 ft 321 kts 329°
2026-04-26 05:48 -26.51922 153.33775 9883 ft 320 kts 329°
2026-04-26 05:48 -26.50039 153.32453 9128 ft 320 kts 330°
2026-04-26 05:48 -26.48179 153.31144 8675 ft 309 kts 330°
2026-04-26 05:48 -26.46389 153.29862 8150 ft 303 kts 326°
2026-04-26 05:49 -26.44840 153.28290 7782 ft 302 kts 315°
2026-04-26 05:49 -26.41958 153.24920 7224 ft 299 kts 316°
2026-04-26 05:49 -26.40515 153.23257 6947 ft 298 kts 316°
2026-04-26 05:50 -26.39079 153.21601 6670 ft 297 kts 316°
2026-04-26 05:50 -26.37650 153.19953 6384 ft 294 kts 316°
2026-04-26 05:50 -26.36312 153.18221 6104 ft 295 kts 304°
2026-04-26 05:50 -26.35410 153.16173 5829 ft 295 kts 288°
2026-04-26 05:51 -26.35006 153.13950 5551 ft 293 kts 276°
2026-04-26 05:51 -26.34742 153.11702 5264 ft 292 kts 276°
2026-04-26 05:51 -26.34469 153.09461 4980 ft 291 kts 276°
2026-04-26 05:51 -26.34262 153.07236 4709 ft 286 kts 267°
2026-04-26 05:52 -26.34551 153.05098 4601 ft 274 kts 249°
2026-04-26 05:52 -26.35327 153.03224 4471 ft 260 kts 232°
2026-04-26 05:52 -26.36362 153.01629 4350 ft 249 kts 229°
2026-04-26 05:52 -26.37454 153.00210 4262 ft 234 kts 215°
2026-04-26 05:53 -26.38763 152.99261 4094 ft 218 kts 199°
2026-04-26 05:53 -26.40130 152.98586 3899 ft 212 kts 198°
2026-04-26 05:53 -26.41452 152.97923 3720 ft 205 kts 198°
2026-04-26 05:53 -26.42735 152.97279 3571 ft 197 kts 198°
2026-04-26 05:54 -26.43966 152.96694 3390 ft 187 kts 189°
2026-04-26 05:54 -26.45197 152.96620 3227 ft 170 kts 163°
2026-04-26 05:54 -26.46256 152.97103 2998 ft 162 kts 141°
2026-04-26 05:54 -26.47134 152.97862 2781 ft 159 kts 139°
2026-04-26 05:55 -26.48001 152.98606 2573 ft 156 kts 140°
2026-04-26 05:55 -26.48846 152.99331 2362 ft 151 kts 140°
2026-04-26 05:55 -26.49654 153.00022 2161 ft 141 kts 140°
2026-04-26 05:55 -26.50414 153.00674 1969 ft 136 kts 140°
2026-04-26 05:56 -26.51159 153.01312 1821 ft 134 kts 141°
2026-04-26 05:56 -26.51891 153.01938 1638 ft 134 kts 141°
2026-04-26 05:56 -26.52628 153.02568 1448 ft 133 kts 141°
2026-04-26 05:56 -26.53360 153.03197 1267 ft 133 kts 142°
2026-04-26 05:57 -26.54089 153.03823 1103 ft 132 kts 142°
2026-04-26 05:57 -26.54814 153.04445 921 ft 131 kts 142°
2026-04-26 05:57 -26.55542 153.05063 737 ft 132 kts 142°
2026-04-26 05:57 -26.56274 153.05679 553 ft 131 kts 142°
2026-04-26 05:58 -26.56987 153.06317 383 ft 131 kts 141°
2026-04-26 05:58 -26.57708 153.06946 233 ft 132 kts 143°
2026-04-26 05:58 -26.58441 153.07562 77 ft 132 kts 142°
2026-04-26 05:58 -26.59147 153.08168 21 ft 116 kts 141°
2026-04-26 05:59 -26.59652 153.08598 23 ft 66 kts 143°
2026-04-26 05:59 -26.59928 153.08834 25 ft 42 kts 142°
2026-04-26 05:59 -26.60125 153.09003 21 ft 30 kts 142°
2026-04-26 05:59 -26.60276 153.09132 21 ft 20 kts 142°
2026-04-26 06:00 -26.60362 153.09176 21 ft 12 kts 186°
2026-04-26 06:00 -26.60449 153.09155 23 ft 14 kts 193°
2026-04-26 06:00 -26.60506 153.09105 21 ft 7 kts 232°
2026-04-26 06:00 -26.60552 153.09066 21 ft 9 kts 199°
2026-04-26 06:01 -26.60607 153.09049 21 ft 6 kts 194°
2026-04-26 06:01 -26.60621 153.09014 21 ft 6 kts 273°
2026-04-26 06:01 -26.60609 153.08961 21 ft 2 kts 284°
2026-04-26 06:01 -26.60605 153.08942 24 ft 2 kts 284°
2026-04-26 06:02 -26.60605 153.08941 21 ft 0 kts 284°
2026-04-26 06:11 -26.60604 153.08941 24 ft 0 kts 284°